Mason City, IA

8:24 AM CDT on April 22, 2018 (GMT -0500)
Mason City Municipal

Weather History for KMCW - November, 2014

Change the Weather History Date:

Wednesday, November 12, 2014

  Actual Average Record
Temperature  
Mean Temperature 19 °F 36 °F  
Max Temperature 22 °F 45 °F 65 °F (1999)
Min Temperature 15 °F 26 °F -6 °F (1896)
Degree Days  
Heating Degree Days 46 29  
Month to date heating degree days 341 314  
Since 1 July heating degree days 1066 1052  
Cooling Degree Days 0 0  
Month to date cooling degree days 0 0  
Year to date cooling degree days 544 616  
Moisture  
Dew Point 14 °F    
Average Humidity 80    
Maximum Humidity 92    
Minimum Humidity 67    
Precipitation  
Precipitation T in 0.07 in 1.56 in (2010)
Month to date precipitation 0.06 0.81  
Year to date precipitation 33.47 32.89  
Snow  
Snow 0.20 in 0.10 in 5.00 in (1940)
Month to date snowfall 1.2 0.9  
Since 1 July snowfall 1.2 1.3  
Since 1 September snowfall 1.2 1.3  
Snow Depth 1.00 in    
Sea Level Pressure  
Sea Level Pressure 30.37 in    
Wind  
Wind Speed 15 mph (WNW)    
Max Wind Speed 22 mph    
Max Gust Speed 27 mph    
Visibility 7 miles    
Events Snow    
T = Trace of Precipitation, MM = Missing Value Source: NWS Daily Summary

Daily Weather History Graph

Daily Weather History Graph

Search for Another Location

Airport or City:

Astronomy

Nov. 12, 2014 Rise Set
Actual Time 7:02 AM CST 4:52 PM CST
Civil Twilight 6:31 AM CST 5:22 PM CST
Nautical Twilight 5:57 AM CST 5:56 PM CST
Astronomical Twilight 5:24 AM CST 6:30 PM CST
Moon 10:13 PM CST (11/12) 11:47 AM CST (11/12)
Length of Visible Light 10h 50m
Length of Day
9h 49m
Waning Gibbous, 68% of the Moon is Illuminated
Nov 12
Waning Gibbous
Nov 14
Last Quarter
Nov 22
New
Nov 29
First Quarter
Dec 6
Full

Hourly Weather History & Observations

Time (CST) Temp. Windchill Dew Point Humidity Pressure Visibility Wind Dir Wind Speed Gust Speed Precip Events Conditions
12:17 AM 17.1 °F 2.0 °F 10.9 °F 77% 30.29 in 10.0 mi WNW 16.1 mph - N/A   Scattered Clouds
12:53 AM 17.1 °F 2.5 °F 10.9 °F 77% 30.34 in 10.0 mi WNW 15.0 mph - N/A   Mostly Cloudy
1:53 AM 18.0 °F 3.6 °F 10.9 °F 74% 30.35 in 10.0 mi WNW 15.0 mph - N/A   Overcast
2:53 AM 18.0 °F 2.2 °F 10.9 °F 74% 30.37 in 10.0 mi WNW 18.4 mph - N/A   Overcast
3:53 AM 17.1 °F 1.5 °F 10.0 °F 74% 30.37 in 10.0 mi NW 17.3 mph 25.3 mph N/A   Overcast
4:53 AM 17.1 °F 1.5 °F 9.0 °F 71% 30.37 in 10.0 mi NW 17.3 mph - N/A   Overcast
5:53 AM 17.1 °F 3.0 °F 10.0 °F 74% 30.39 in 10.0 mi WNW 13.8 mph - N/A   Overcast
6:53 AM 17.1 °F 2.5 °F 10.9 °F 77% 30.39 in 10.0 mi WNW 15.0 mph - N/A   Overcast
7:07 AM 17.1 °F 2.0 °F 12.9 °F 84% 30.34 in 4.0 mi West 16.1 mph - 0.00 in Snow Light Snow
7:53 AM 15.1 °F -0.6 °F 10.9 °F 84% 30.40 in 5.0 mi West 16.1 mph - 0.00 in Snow Light Snow
8:24 AM 15.1 °F 0.5 °F 10.9 °F 84% 30.35 in 6.0 mi West 13.8 mph - 0.00 in Snow Light Snow
8:42 AM 16.0 °F 0.6 °F 10.9 °F 81% 30.35 in 8.0 mi West 16.1 mph - 0.00 in   Overcast
8:53 AM 15.1 °F -0.6 °F 10.9 °F 84% 30.41 in 7.0 mi West 16.1 mph - 0.00 in   Overcast
9:51 AM 17.6 °F 2.7 °F 12.2 °F 79% 30.35 in 8.0 mi WNW 16.1 mph - 0.00 in   Overcast
9:53 AM 17.1 °F 1.5 °F 12.0 °F 81% 30.41 in 8.0 mi WNW 17.3 mph - 0.00 in   Overcast
10:01 AM 18.0 °F 3.1 °F 12.0 °F 78% 30.35 in 8.0 mi West 16.1 mph - N/A   Overcast
10:53 AM 19.0 °F 5.6 °F 12.9 °F 77% 30.41 in 9.0 mi WNW 13.8 mph - N/A   Overcast
11:53 AM 21.0 °F 6.6 °F 14.0 °F 74% 30.40 in 10.0 mi WNW 17.3 mph - N/A   Overcast
12:53 PM 21.0 °F 6.2 °F 14.0 °F 74% 30.38 in 10.0 mi NW 18.4 mph 24.2 mph N/A   Overcast
1:36 PM 21.0 °F 7.1 °F 14.0 °F 74% 30.33 in 2.5 mi WNW 16.1 mph - 0.00 in Snow Light Snow
1:48 PM 21.2 °F 7.8 °F 14.0 °F 74% 30.33 in 5.0 mi NW 15.0 mph - 0.00 in Snow Light Snow
1:53 PM 21.0 °F 7.1 °F 15.1 °F 78% 30.38 in 3.0 mi NW 16.1 mph - 0.00 in Snow Light Snow
2:00 PM 21.0 °F 8.1 °F 15.1 °F 78% 30.33 in 2.0 mi WNW 13.8 mph - 0.00 in Snow Light Snow
2:08 PM 21.0 °F 8.6 °F 14.0 °F 74% 30.33 in 9.0 mi NW 12.7 mph - 0.00 in   Overcast
2:53 PM 21.9 °F 9.2 °F 14.0 °F 72% 30.38 in 9.0 mi WNW 13.8 mph - 0.00 in   Overcast
3:12 PM 21.0 °F 8.6 °F 16.0 °F 81% 30.34 in 2.5 mi NW 12.7 mph - 0.00 in Snow Light Snow
3:20 PM 21.0 °F 7.6 °F 16.0 °F 81% 30.34 in 4.0 mi WNW 15.0 mph - 0.00 in Snow Light Snow
3:53 PM 21.0 °F 8.1 °F 15.1 °F 78% 30.40 in 9.0 mi WNW 13.8 mph - 0.00 in   Overcast
4:53 PM 21.0 °F 9.9 °F 16.0 °F 81% 30.39 in 8.0 mi West 10.4 mph - 0.00 in Snow Light Snow
5:53 PM 21.0 °F 9.3 °F 17.1 °F 85% 30.40 in 6.0 mi West 11.5 mph - 0.00 in Snow Light Snow
6:53 PM 21.0 °F 12.4 °F 18.0 °F 88% 30.40 in 10.0 mi WNW 6.9 mph - 0.00 in   Overcast
7:18 PM 21.0 °F 8.6 °F 18.0 °F 88% 30.35 in 6.0 mi WNW 12.7 mph - 0.00 in Snow Light Snow
7:28 PM 21.9 °F 8.7 °F 18.0 °F 85% 30.35 in 9.0 mi WNW 15.0 mph - 0.00 in Snow Light Snow
7:53 PM 21.0 °F 9.3 °F 17.1 °F 85% 30.40 in 10.0 mi WNW 11.5 mph - 0.00 in   Overcast
8:53 PM 21.0 °F 8.6 °F 18.0 °F 88% 30.41 in 8.0 mi WNW 12.7 mph - 0.00 in Snow Light Snow
9:19 PM 21.9 °F 9.8 °F 18.0 °F 85% 30.35 in 6.0 mi WNW 12.7 mph - 0.00 in Snow Light Snow
9:53 PM 21.9 °F 9.2 °F 18.0 °F 85% 30.41 in 7.0 mi WNW 13.8 mph - 0.00 in Snow Light Snow
10:44 PM 21.9 °F 9.8 °F 18.0 °F 85% 30.35 in 3.0 mi WNW 12.7 mph - 0.00 in Snow Light Snow
10:53 PM 21.9 °F 10.4 °F 19.0 °F 89% 30.40 in 3.0 mi WNW 11.5 mph - 0.00 in Snow Light Snow
11:10 PM 21.9 °F 8.2 °F 19.0 °F 89% 30.36 in 4.0 mi NW 16.1 mph - 0.00 in Snow Light Snow
11:34 PM 21.9 °F 8.2 °F 18.0 °F 85% 30.36 in 10.0 mi NW 16.1 mph - 0.00 in   Overcast
11:53 PM 21.9 °F 7.8 °F 18.0 °F 85% 30.40 in 10.0 mi NW 17.3 mph - 0.00 in   Overcast